Wind_Speed
74 82 87 89 86 81 79 77 76 73 72 76 80 86 91 94 96 101 103 102 102 103 101 104 106 104 103 104 105 106 105 106 107 91 94 102 102 92 95 89 81 89 87 89
75 72 83 88 84 81 80 81 80 76 74 74 74 76 76 77 78 81 83 84 83 85 85 88 94 99 103 101 93 112 105 104 104 68 102 104 92 95 91 78 70 82 78 67
78 74 75 78 82 82 79 80 83 81 76 75 76 77 75 76 76 76 78 79 81 83 85 86 88 95 97 97 94 98 97 108 102 105 115 109 88 72 88 80 86 87 87 88
74 75 73 71 74 77 81 83 82 80 77 77 77 78 77 78 78 79 81 82 83 83 83 86 89 93 95 88 101 93 97 103 100 108 114 112 103 95 99 80 85 86 95 92
71 70 70 71 67 71 75 83 83 81 77 77 75 77 78 77 79 80 79 76 77 79 80 86 86 93 90 93 102 101 105 103 107 105 109 111 114 113 116 112 107 107 97 96
65 65 64 64 62 62 67 72 77 80 79 75 78 78 79 79 76 75 73 74 76 82 84 85 88 89 92 96 100 100 107 111 109 109 111 110 104 110 113 118 118 112 110 102
62 61 60 60 60 61 60 62 66 70 76 75 77 72 71 71 71 71 71 71 71 72 78 80 83 87 96 104 107 103 109 115 116 113 112 111 108 106 108 111 113 112 109 113
54 56 57 57 60 61 60 58 63 65 65 68 69 70 71 67 69 69 71 69 66 66 67 70 75 75 81 89 105 113 115 118 118 115 113 111 109 106 108 107 104 105 104 107
53 53 53 55 58 60 60 60 61 60 61 65 65 64 66 67 68 67 66 66 60 57 55 57 59 55 56 63 74 97 114 123 121 121 118 114 110 109 109 109 107 105 102 97
49 48 52 48 48 50 54 58 58 62 63 62 64 63 67 65 67 67 65 62 60 53 50 46 48 45 46 53 61 74 91 103 119 124 121 121 120 117 116 112 106 104 98 98
47 46 46 45 45 46 50 56 56 57 58 60 62 65 66 68 69 69 65 61 60 57 50 46 40 39 37 43 49 59 75 89 97 100 111 120 122 119 116 116 114 112 104 101
46 46 44 46 47 46 52 54 57 60 60 60 60 65 64 69 69 66 62 59 56 54 52 50 43 38 36 34 39 45 55 70 87 92 91 97 98 106 115 118 115 112 109 109
50 47 46 44 46 47 46 51 56 58 60 62 63 66 65 65 66 63 60 57 55 54 53 52 50 45 38 36 34 36 39 46 57 75 88 89 87 87 87 95 103 104 105 107
49 48 47 45 44 45 48 49 50 52 55 61 62 66 64 65 65 62 61 60 59 56 55 55 53 50 46 39 36 35 37 39 41 46 51 56 58 59 63 69 76 85 90 95
50 50 49 47 45 42 42 45 50 55 58 58 63 64 68 69 68 69 68 67 64 62 60 58 58 56 52 47 42 35 35 37 41 42 44 46 50 54 56 59 61 64 67 72
48 49 51 49 49 49 47 46 45 46 48 49 55 58 61 66 69 70 71 69 67 66 63 63 62 60 58 54 50 45 40 37 38 39 42 47 51 54 56 58 59 60 62 65
49 49 51 52 53 54 53 54 54 52 52 51 55 56 59 59 60 60 62 67 72 72 71 71 68 66 64 61 58 54 48 44 40 41 42 44 45 47 50 53 55 57 59 61
48 49 51 51 52 52 51 56 54 56 57 58 60 62 62 64 65 65 65 66 67 67 71 75 74 74 72 69 66 61 58 54 48 44 42 42 42 43 45 46 48 51 54 56
49 48 47 47 49 48 49 51 52 55 56 58 61 64 66 69 69 67 68 69 71 74 74 74 76 79 78 78 74 70 65 60 56 51 47 46 45 45 46 48 50 54 59 63
50 49 48 49 49 50 51 53 55 57 61 64 66 67 69 72 74 70 73 73 72 70 70 70 72 73 74 79 79 77 71 66 62 58 56 53 52 51 51 53 58 62 65 68
49 49 48 48 50 52 54 57 60 62 65 65 66 66 68 69 68 64 63 57 56 56 57 55 54 59 66 69 73 79 76 71 66 63 61 59 55 55 56 60 64 67 71 74
49 49 51 53 55 57 59 61 60 60 61 62 63 60 56 52 49 47 44 43 41 40 41 41 42 43 47 54 60 66 71 71 68 66 63 61 61 62 62 64 68 71 74 73
50 51 53 54 57 56 55 56 57 56 53 48 48 41 38 33 31 29 27 28 28 26 25 26 28 30 32 37 44 49 53 58 62 65 64 62 62 63 65 66 61 53 43 37
47 51 53 52 50 50 48 47 45 42 34 32 27 23 20 18 16 15 14 15 15 15 15 15 14 15 18 21 24 29 33 37 41 45 48 50 48 42 37 33 28 26 30 37
46 45 43 41 40 41 38 36 31 26 22 17 15 13 11 10 8 6 5 5 5 7 8 9 9 10 10 11 12 14 15 16 17 18 19 19 19 18 17 18 22 26 30 38
34 33 35 36 36 34 29 23 20 16 14 12 11 11 10 10 11 10 12 14 15 15 16 16 17 17 17 17 17 17 16 15 14 14 12 8 7 11 16 20 21 25 33 42
Wind_Direction
236 236 233 234 237 238 241 241 240 240 241 242 242 243 244 245 247 250 251 252 253 255 255 255 255 256 254 257 259 259 260 264 263 254 247 257 263 267 268 266 266 269 268 271
236 237 237 235 234 237 238 241 242 241 241 243 244 246 246 247 248 248 250 252 252 254 254 253 253 254 255 254 251 254 255 253 255 262 253 256 258 261 258 257 257 263 263 261
237 238 240 238 235 234 237 240 242 242 242 245 245 245 247 248 249 250 252 254 255 256 257 256 254 255 255 255 254 256 252 250 250 242 250 253 251 257 249 253 256 253 257 261
236 237 238 239 237 236 235 237 241 243 243 246 248 250 250 251 252 253 255 257 258 259 259 259 258 254 253 252 254 249 250 252 250 246 247 249 245 244 250 248 250 254 256 260
236 238 238 238 238 237 238 238 239 242 242 243 246 249 250 252 254 255 257 259 260 260 261 260 257 258 255 249 249 251 252 247 249 250 249 248 248 245 246 248 249 252 257 258
235 238 239 240 239 238 239 239 240 242 242 245 247 249 254 255 258 259 260 261 263 263 263 262 261 259 256 252 249 244 248 250 248 246 248 249 247 250 250 249 249 249 253 256
233 236 235 235 234 234 237 237 238 240 241 242 246 248 251 256 258 260 261 265 267 268 268 268 266 260 251 246 248 246 244 245 249 248 248 248 250 249 250 252 253 254 252 253
232 230 231 232 233 233 237 238 236 237 238 241 244 247 249 255 258 259 262 265 269 268 274 274 269 262 251 243 243 243 244 244 246 249 249 249 249 251 253 255 255 256 256 258
225 227 233 234 234 237 242 231 232 231 234 237 240 246 248 250 254 259 264 267 269 269 278 283 276 265 254 245 242 240 240 243 244 247 249 249 251 252 251 253 255 257 258 260
226 231 229 237 234 233 231 229 229 233 234 239 244 244 248 249 253 256 263 269 271 272 273 290 285 271 260 250 242 239 241 242 242 244 247 248 250 251 255 257 257 256 259 262
225 228 229 230 230 232 228 229 232 236 237 239 241 243 247 250 254 257 262 267 271 274 276 280 286 284 276 261 247 242 239 238 241 244 246 246 248 250 251 252 256 260 260 261
226 229 231 232 234 234 233 231 232 234 236 240 244 249 250 253 255 258 262 263 265 268 271 275 279 278 276 273 267 255 244 240 237 236 239 247 247 250 252 252 253 256 258 259
222 229 232 233 234 235 237 237 237 240 242 245 247 251 251 253 254 255 258 262 262 265 267 270 274 279 277 272 268 266 257 246 242 242 245 247 251 253 255 253 251 255 257 258
222 227 231 234 234 234 234 238 241 242 243 244 246 249 251 254 255 256 258 259 260 261 263 266 270 273 277 277 271 267 264 261 256 252 250 249 253 256 256 256 256 256 257 258
225 227 232 235 238 238 238 239 240 242 244 246 249 252 255 255 257 258 259 259 258 259 260 262 263 266 269 274 276 273 266 263 262 261 260 258 258 257 258 257 257 257 258 261
228 233 237 239 241 240 241 242 242 244 246 247 250 253 256 259 258 258 258 257 257 256 257 257 259 260 261 264 267 270 270 264 260 259 259 260 260 260 260 261 262 265 266 267
230 233 237 240 242 243 245 248 248 248 247 248 250 252 255 258 260 260 258 257 257 256 255 255 254 255 255 256 258 261 263 264 263 259 257 256 256 258 259 260 262 263 265 266
233 234 238 243 247 250 251 254 254 256 258 258 258 259 260 262 262 262 263 263 259 257 255 252 252 252 252 252 252 252 254 256 258 260 261 261 260 260 261 261 262 263 266 269
234 237 241 244 248 252 257 260 262 264 263 264 265 265 266 267 266 265 265 263 261 258 256 254 252 249 248 248 249 249 248 249 252 255 257 259 261 262 264 266 270 271 271 271
233 237 242 247 252 254 257 259 261 262 264 265 267 269 270 269 269 270 269 268 266 264 262 258 254 252 250 247 247 247 247 247 248 250 254 257 259 262 266 269 270 271 274 275
232 236 242 247 252 254 254 256 258 262 266 268 270 271 271 272 272 271 269 269 266 262 260 258 254 251 249 246 243 243 245 245 248 250 252 255 260 264 267 269 273 276 277 280
232 237 242 244 249 253 257 261 265 266 268 271 273 272 272 269 267 266 265 264 264 263 261 260 256 252 247 244 242 241 241 242 244 247 251 256 260 263 266 269 271 275 278 281
233 238 243 247 253 258 261 263 265 267 268 270 270 269 268 265 263 263 260 257 257 256 255 253 253 252 248 242 240 239 239 241 244 246 250 253 257 261 267 271 273 275 279 279
235 241 247 252 254 258 261 265 269 272 273 265 264 259 254 246 246 253 255 255 251 246 236 230 230 230 231 233 235 235 236 238 240 243 248 253 257 259 259 263 269 272 282 288
240 246 250 257 262 264 267 270 271 264 255 247 236 227 222 219 214 209 196 183 187 200 199 186 174 167 168 174 183 191 199 205 212 218 222 226 230 240 251 259 267 281 292 304
247 255 260 262 267 272 271 262 242 229 218 212 205 199 187 175 168 155 136 129 127 126 127 131 135 138 140 140 141 143 148 155 160 162 169 186 223 248 260 268 271 299 309 312
Height
10633 10638 10646 10648 10659 10674 10683 10690 10693 10701 10709 10713 10721 10725 10728 10737 10744 10747 10753 10752 10760 10767 10776 10784 10783 10789 10792 10805 10804 10811 10813 10819 10818 10834 10825 10826 10821 10829 10831 10835 10850 10845 10841 10839
10616 10623 10624 10635 10648 10660 10668 10671 10675 10687 10694 10699 10704 10706 10711 10717 10723 10729 10733 10735 10742 10745 10752 10756 10759 10765 10767 10781 10791 10784 10797 10799 10800 10807 10803 10810 10814 10812 10810 10823 10838 10831 10812 10820
10600 10606 10613 10623 10634 10644 10653 10655 10660 10670 10680 10684 10686 10690 10695 10699 10705 10712 10715 10717 10721 10724 10729 10734 10738 10740 10743 10756 10761 10761 10765 10763 10782 10788 10778 10785 10802 10789 10790 10801 10804 10807 10805 10810
10583 10591 10600 10609 10618 10627 10636 10636 10645 10654 10666 10667 10672 10672 10678 10683 10688 10693 10695 10699 10702 10706 10709 10710 10714 10717 10722 10737 10724 10734 10738 10734 10747 10752 10754 10760 10774 10769 10768 10781 10781 10785 10790 10793
10568 10576 10585 10595 10602 10611 10617 10623 10632 10640 10649 10651 10656 10658 10661 10668 10669 10674 10678 10681 10682 10685 10688 10685 10691 10685 10702 10706 10701 10707 10707 10715 10713 10722 10721 10731 10740 10746 10750 10757 10764 10770 10770 10778
10558 10564 10575 10583 10590 10598 10602 10609 10615 10624 10631 10640 10638 10645 10644 10648 10653 10655 10659 10662 10663 10663 10664 10665 10665 10667 10672 10674 10677 10687 10682 10685 10690 10694 10696 10705 10719 10721 10727 10730 10741 10751 10752 10759
10546 10552 10559 10567 10576 10582 10588 10594 10601 10608 10616 10625 10624 10631 10627 10633 10636 10638 10641 10642 10645 10644 10642 10640 10635 10638 10641 10644 10645 10658 10658 10658 10659 10669 10677 10687 10695 10699 10703 10706 10714 10723 10731 10732
10535 10542 10548 10556 10563 10569 10573 10583 10589 10595 10602 10605 10614 10616 10615 10620 10615 10618 10623 10626 10628 10626 10621 10617 10609 10608 10608 10613 10620 10631 10632 10635 10638 10646 10654 10664 10672 10683 10684 10688 10694 10698 10707 10715
10524 10531 10538 10544 10550 10557 10563 10570 10573 10583 10589 10593 10599 10601 10602 10603 10603 10603 10604 10609 10613 10612 10607 10599 10592 10584 10583 10588 10593 10602 10607 10614 10620 10624 10633 10642 10650 10658 10663 10669 10675 10679 10687 10697
10515 10521 10528 10533 10538 10543 10550 10555 10564 10570 10577 10582 10585 10588 10581 10589 10588 10590 10593 10595 10595 10598 10596 10589 10582 10576 10570 10568 10571 10579 10584 10591 10598 10605 10616 10621 10630 10637 10642 10647 10654 10662 10673 10681
10506 10511 10516 10522 10528 10533 10539 10545 10553 10559 10565 10568 10569 10567 10572 10572 10574 10576 10581 10584 10582 10582 10581 10579 10574 10569 10563 10560 10560 10562 10566 10573 10580 10586 10592 10602 10609 10615 10622 10626 10633 10643 10654 10660
10495 10501 10507 10512 10517 10524 10528 10534 10539 10544 10549 10552 10556 10551 10559 10557 10561 10565 10568 10570 10570 10568 10566 10564 10563 10560 10558 10556 10554 10553 10555 10561 10566 10572 10578 10582 10588 10593 10600 10610 10617 10623 10630 10636
10484 10491 10496 10501 10507 10513 10518 10522 10527 10533 10537 10540 10541 10537 10540 10542 10544 10549 10554 10556 10557 10554 10552 10550 10549 10549 10548 10547 10548 10549 10550 10552 10554 10561 10564 10570 10573 10579 10585 10590 10597 10603 10609 10614
10475 10480 10485 10490 10495 10501 10506 10510 10516 10521 10524 10522 10525 10522 10526 10526 10529 10535 10539 10541 10541 10541 10539 10538 10538 10538 10537 10538 10540 10541 10542 10544 10545 10547 10551 10556 10560 10564 10568 10573 10579 10584 10588 10591
10465 10470 10474 10480 10485 10490 10494 10498 10502 10506 10508 10513 10507 10511 10509 10512 10516 10519 10522 10525 10527 10526 10526 10526 10525 10526 10527 10527 10528 10531 10532 10534 10535 10537 10541 10543 10547 10550 10554 10558 10561 10566 10569 10571
10454 10459 10463 10469 10474 10478 10481 10486 10490 10492 10494 10498 10497 10496 10496 10494 10498 10501 10503 10506 10508 10510 10513 10511 10512 10514 10515 10517 10518 10519 10521 10522 10524 10527 10530 10532 10536 10539 10542 10545 10548 10552 10554 10556
10444 10448 10452 10456 10460 10465 10470 10472 10476 10479 10482 10484 10483 10483 10480 10482 10480 10482 10484 10485 10487 10490 10493 10493 10495 10497 10499 10502 10505 10507 10510 10511 10513 10515 10518 10521 10524 10527 10530 10534 10536 10537 10539 10540
10432 10436 10439 10444 10447 10452 10457 10456 10461 10463 10466 10466 10466 10466 10467 10465 10464 10465 10465 10466 10465 10467 10469 10472 10474 10478 10481 10484 10488 10492 10495 10498 10501 10504 10507 10510 10513 10516 10519 10521 10523 10524 10526 10526
10419 10424 10428 10431 10434 10440 10442 10443 10445 10447 10448 10448 10448 10446 10447 10444 10445 10447 10445 10443 10443 10444 10446 10448 10451 10454 10458 10463 10468 10473 10479 10484 10488 10492 10496 10499 10503 10506 10508 10510 10512 10512 10512 10510
10407 10412 10417 10420 10423 10426 10430 10430 10431 10431 10430 10430 10429 10429 10428 10425 10422 10426 10420 10421 10419 10420 10421 10423 10427 10431 10435 10441 10447 10453 10461 10468 10475 10480 10483 10486 10491 10495 10498 10499 10497 10496 10495 10493
10396 10401 10405 10408 10410 10411 10415 10415 10415 10415 10414 10413 10412 10411 10408 10405 10402 10401 10398 10399 10398 10397 10397 10399 10403 10407 10411 10418 10426 10434 10441 10451 10460 10465 10470 10475 10480 10485 10485 10484 10482 10481 10478 10475
10385 10390 10392 10395 10397 10398 10398 10401 10400 10398 10398 10397 10394 10391 10389 10389 10385 10383 10383 10383 10383 10383 10384 10386 10388 10390 10394 10401 10407 10414 10424 10436 10443 10451 10459 10465 10469 10471 10471 10470 10467 10467 10464 10460
10375 10378 10380 10384 10385 10386 10385 10385 10385 10384 10383 10383 10378 10377 10375 10375 10374 10373 10373 10372 10373 10374 10375 10377 10378 10381 10385 10389 10394 10402 10411 10421 10431 10440 10448 10452 10455 10457 10459 10458 10457 10454 10453 10449
10364 10366 10369 10371 10373 10373 10373 10372 10370 10369 10369 10368 10367 10367 10367 10367 10367 10367 10367 10367 10367 10368 10370 10371 10373 10376 10380 10384 10390 10397 10406 10413 10421 10428 10435 10441 10445 10447 10448 10449 10448 10447 10445 10439
10354 10356 10359 10360 10361 10359 10360 10358 10358 10358 10359 10359 10360 10361 10362 10363 10364 10364 10365 10365 10365 10366 10368 10371 10374 10377 10381 10385 10390 10396 10402 10409 10416 10423 10429 10434 10438 10441 10444 10444 10444 10440 10434 10427
10344 10347 10348 10347 10347 10347 10347 10348 10349 10351 10353 10354 10356 10358 10360 10362 10363 10364 10366 10366 10367 10369 10371 10373 10376 10380 10384 10389 10394 10399 10405 10411 10418 10424 10430 10435 10438 10439 10439 10438 10436 10432 10422 10414